Fort Myers Airport, FL

7:17 AM EDT on June 21, 2018 (GMT -0400)
Southwest Florida International

Weather History for KRSW - September, 2017

Change the Weather History Date:

Wednesday, September 13, 2017

  Actual Average Record
Temperature  
Mean Temperature 82 °F -  
Max Temperature 90 °F 90 °F 98 °F (1996)
Min Temperature 75 °F 74 °F 69 °F (1996)
Cooling Degree Days 17    
Growing Degree Days 32 (Base 50)    
Moisture  
Dew Point 73 °F    
Average Humidity 75    
Maximum Humidity 91    
Minimum Humidity 55    
Precipitation  
Precipitation 0.00 in - - ()
Sea Level Pressure  
Sea Level Pressure 29.93 in    
Wind  
Wind Speed 2 mph (SSE)    
Max Wind Speed 10 mph    
Max Gust Speed -    
Visibility 10 miles    
Events Rain    
Averages and records for this station are not official NWS values.
T = Trace of Precipitation, MM = Missing Value Source: NWS Daily Summary

Daily Weather History Graph

Daily Weather History Graph

Search for Another Location

Airport or City:

Astronomy

Sep. 13, 2017 Rise Set
Actual Time 7:11 AM EDT 7:33 PM EDT
Civil Twilight 6:48 AM EDT 7:56 PM EDT
Nautical Twilight 6:21 AM EDT 8:23 PM EDT
Astronomical Twilight 5:54 AM EDT 8:50 PM EDT
Moon 12:36 AM EDT (9/13) 2:24 PM EDT (9/13)
Length of Visible Light 13h 07m
Length of Day
12h 21m
Last Quarter, 46% of the Moon is Illuminated
Sep 13
Last Quarter
Sep 20
New
Sep 27
First Quarter
Oct 5
Full
Oct 12
Last Quarter

Hourly Weather History & Observations

Time (EDT) Temp. Heat Index Dew Point Humidity Pressure Visibility Wind Dir Wind Speed Gust Speed Precip Events Conditions
12:53 AM 78.1 °F - 72.0 °F 81% 29.91 in 10.0 mi Calm Calm - N/A   Clear
1:53 AM 77.0 °F - 73.0 °F 88% 29.91 in 10.0 mi Calm Calm - N/A   Clear
2:53 AM 77.0 °F - 72.0 °F 84% 29.90 in 10.0 mi Calm Calm - N/A   Clear
3:53 AM 77.0 °F - 73.0 °F 88% 29.89 in 10.0 mi Calm Calm - N/A   Clear
4:53 AM 75.9 °F - 73.0 °F 91% 29.90 in 10.0 mi Calm Calm - N/A   Clear
5:53 AM 75.9 °F - 73.0 °F 91% 29.92 in 10.0 mi Calm Calm - N/A   Clear
6:53 AM 75.9 °F - 73.0 °F 91% 29.93 in 10.0 mi Calm Calm - N/A   Partly Cloudy
7:53 AM 77.0 °F - 73.9 °F 90% 29.94 in 10.0 mi Calm Calm - N/A   Clear
8:53 AM 80.1 °F 83.6 °F 71.1 °F 74% 29.94 in 10.0 mi NE 5.8 mph - N/A   Clear
9:53 AM 82.0 °F 85.9 °F 70.0 °F 67% 29.95 in 10.0 mi East 4.6 mph - N/A   Clear
10:53 AM 84.0 °F 88.4 °F 70.0 °F 63% 29.96 in 10.0 mi East 4.6 mph - N/A   Clear
11:53 AM 86.0 °F 91.5 °F 71.1 °F 61% 29.97 in 10.0 mi Variable 3.5 mph - N/A   Clear
12:53 PM 87.1 °F 93.6 °F 72.0 °F 61% 29.95 in 10.0 mi Variable 3.5 mph - N/A   Clear
1:53 PM 89.1 °F 95.0 °F 71.1 °F 55% 29.94 in 10.0 mi Variable 4.6 mph - N/A   Clear
2:53 PM 87.1 °F 93.6 °F 72.0 °F 61% 29.92 in 9.0 mi SSW 10.4 mph - 0.00 in Rain Light Rain
3:53 PM 88.0 °F 94.7 °F 72.0 °F 59% 29.90 in 10.0 mi South 3.5 mph - 0.00 in   Partly Cloudy
4:53 PM 84.9 °F 93.3 °F 75.0 °F 72% 29.90 in 10.0 mi South 6.9 mph - N/A   Clear
5:53 PM 86.0 °F 93.8 °F 73.9 °F 67% 29.91 in 10.0 mi SW 6.9 mph - N/A   Clear
6:53 PM 84.9 °F 92.1 °F 73.9 °F 69% 29.91 in 10.0 mi SW 3.5 mph - N/A   Clear
7:53 PM 82.9 °F 90.2 °F 75.0 °F 77% 29.91 in 10.0 mi SE 6.9 mph - N/A   Clear
8:53 PM 82.0 °F 87.9 °F 73.9 °F 76% 29.92 in 10.0 mi SE 3.5 mph - N/A   Clear
9:53 PM 82.0 °F 87.9 °F 73.9 °F 76% 29.94 in 10.0 mi Calm Calm - N/A   Clear
10:53 PM 81.0 °F 86.7 °F 75.0 °F 82% 29.95 in 10.0 mi SE 4.6 mph - N/A   Clear
11:53 PM 81.0 °F 86.7 °F 75.0 °F 82% 29.96 in 10.0 mi Calm Calm - N/A   Mostly Cloudy